Tacoma, WA

7:07 AM PDT on June 26, 2017 (GMT -0700)
McChord Air Force Base

Weather History for KTCM - October, 2011

Change the Weather History Date:

Tuesday, October 18, 2011

  Actual Average Record
Temperature  
Mean Temperature 50 °F -  
Max Temperature 67 °F 57 °F 70 °F (1973)
Min Temperature 33 °F 39 °F 27 °F (1969)
Degree Days  
Heating Degree Days 15    
Moisture  
Dew Point 39 °F    
Average Humidity 91    
Maximum Humidity 100    
Minimum Humidity 46    
Precipitation  
Precipitation 0.00 in - - ()
Sea Level Pressure  
Sea Level Pressure 30.19 in    
Wind  
Wind Speed 2 mph (SE)    
Max Wind Speed 8 mph    
Max Gust Speed -    
Visibility 5 miles    
Events Fog    
Averages and records for this station are not official NWS values.
T = Trace of Precipitation, MM = Missing Value Source: NWS Daily Summary

Daily Weather History Graph

Daily Weather History Graph

Search for Another Location

Airport or City:

Trip Planner

Search our weather history database for the weather conditions in past years. The results will help you decide how hot, cold, wet, or windy it might be!

Date:

Astronomy

Oct. 18, 2011 Rise Set
Actual Time 7:32 AM PDT 6:17 PM PDT
Civil Twilight 7:01 AM PDT 6:48 PM PDT
Nautical Twilight 6:25 AM PDT 7:23 PM PDT
Astronomical Twilight 5:50 AM PDT 7:58 PM PDT
Moon 10:50 PM PDT (10/18) 1:41 PM PDT (10/18)
Length of Visible Light 11h 46m
Length of Day
10h 45m
Waning Gibbous, 64% of the Moon is Illuminated
Oct 18
Waning Gibbous
Oct 19
Last Quarter
Oct 26
New
Nov 2
First Quarter
Nov 10
Full

Hourly Weather History & Observations

Time (PDT) Temp. Windchill Dew Point Humidity Pressure Visibility Wind Dir Wind Speed Gust Speed Precip Events Conditions
12:58 AM 39.2 °F - 38.5 °F 97% 30.30 in 10.0 mi SE 2.3 mph - N/A   Clear
1:58 AM 37.4 °F 34.9 °F 36.9 °F 98% 30.34 in 10.0 mi ESE 3.5 mph - N/A   Clear
2:58 AM 38.5 °F 36.1 °F 37.8 °F 97% 30.27 in 10.0 mi East 3.5 mph - N/A   Clear
3:58 AM 37.0 °F - 36.9 °F 99% 30.31 in 8.0 mi ESE 2.3 mph - N/A   Clear
4:53 AM 35.6 °F - 35.6 °F 100% 30.25 in 2.0 mi ESE 2.3 mph - N/A   Clear
4:58 AM 36.1 °F 33.5 °F 36.0 °F 99% 30.30 in 2.0 mi South 3.5 mph - N/A   Clear
5:59 AM 36.5 °F - 36.3 °F 99% 30.28 in 0.8 mi Calm Calm - N/A   Clear
6:04 AM 37.4 °F - 37.4 °F 100% 30.23 in 0.8 mi Calm Calm - N/A   Clear
6:09 AM 37.4 °F - 37.4 °F 100% 30.23 in 1.0 mi Calm Calm - N/A   Clear
6:14 AM 37.4 °F 34.9 °F 37.4 °F 100% 30.23 in 0.8 mi South 3.5 mph - N/A   Clear
6:19 AM 37.4 °F 34.9 °F 37.4 °F 100% 30.23 in 0.5 mi South 3.5 mph - N/A Fog Fog
6:24 AM 35.6 °F 32.8 °F 35.6 °F 100% 30.23 in 0.8 mi South 3.5 mph - N/A   Clear
6:29 AM 35.6 °F - 33.8 °F 93% 30.23 in 1.0 mi Calm Calm - N/A   Clear
6:34 AM 33.8 °F - 33.8 °F 100% 30.23 in 0.8 mi Calm Calm - N/A   Clear
6:39 AM 35.6 °F - 33.8 °F 93% 30.23 in 1.8 mi Calm Calm - N/A   Clear
6:43 AM 35.6 °F - 35.6 °F 100% 30.22 in 2.5 mi South 2.3 mph - N/A   Partly Cloudy
6:48 AM 35.6 °F - 35.6 °F 100% 30.22 in 3.0 mi Variable 2.3 mph - N/A   Scattered Clouds
6:58 AM 35.6 °F - 35.6 °F 100% 30.27 in 2.0 mi Calm Calm - N/A   Scattered Clouds
7:03 AM 35.6 °F - 35.6 °F 100% 30.22 in 1.2 mi Calm Calm - N/A   Partly Cloudy
7:08 AM 35.6 °F - 35.6 °F 100% 30.21 in 0.8 mi Calm Calm - N/A   Mist
7:13 AM 35.6 °F - 35.6 °F 100% 30.22 in 0.8 mi Calm Calm - N/A   Mist
7:18 AM 35.6 °F - 35.6 °F 100% 30.21 in 0.5 mi Calm Calm - N/A Fog Fog
7:23 AM 35.6 °F - 35.6 °F 100% 30.21 in 0.2 mi Calm Calm - N/A Fog Fog
7:28 AM 35.6 °F - 35.6 °F 100% 30.21 in 0.2 mi Calm Calm - N/A Fog Fog
7:33 AM 35.6 °F - 35.6 °F 100% 30.20 in 0.2 mi Calm Calm - N/A Fog Fog
7:38 AM 35.6 °F - 35.6 °F 100% 30.20 in 0.2 mi Calm Calm - N/A Fog Fog
7:43 AM 35.6 °F - 35.6 °F 100% 30.20 in 0.2 mi Calm Calm - N/A Fog Fog
7:48 AM 35.6 °F - 35.6 °F 100% 30.20 in 0.8 mi Calm Calm - N/A   Clear
7:53 AM 35.6 °F - 35.6 °F 100% 30.20 in 2.5 mi Variable 1.2 mph - N/A   Clear
7:55 AM 35.6 °F - 35.6 °F 100% 30.20 in 5.0 mi SSW 2.3 mph - N/A   Partly Cloudy
7:58 AM 36.1 °F - 36.0 °F 99% 30.25 in 7.0 mi Calm Calm - N/A   Partly Cloudy
8:13 AM 35.6 °F - 35.6 °F 100% 30.21 in 10.0 mi Calm Calm - N/A   Mostly Cloudy
8:38 AM 37.4 °F - 37.4 °F 100% 30.20 in 7.0 mi Calm Calm - N/A   Overcast
8:48 AM 39.2 °F - 39.2 °F 100% 30.20 in 1.5 mi Calm Calm - N/A   Scattered Clouds
8:58 AM 40.8 °F - 40.5 °F 99% 30.25 in 1.5 mi ENE 1.2 mph - N/A   Partly Cloudy
9:03 AM 42.8 °F - 42.8 °F 100% 30.20 in 1.8 mi Variable 1.2 mph - N/A   Partly Cloudy
9:08 AM 42.8 °F - 42.8 °F 100% 30.20 in 2.0 mi Variable 1.2 mph - N/A   Clear
9:13 AM 42.8 °F - 42.8 °F 100% 30.19 in 3.0 mi Calm Calm - N/A   Clear
9:58 AM 50.9 °F - 48.9 °F 93% 30.22 in 10.0 mi NE 3.5 mph - N/A   Clear
10:58 AM 54.5 °F - 46.9 °F 76% 30.18 in 10.0 mi North 5.8 mph - N/A   Clear
11:58 AM 58.6 °F - 46.9 °F 65% 30.15 in 9.0 mi North 5.8 mph - N/A   Clear
12:58 PM 62.1 °F - 46.9 °F 58% 30.12 in 10.0 mi North 8.1 mph - N/A   Clear
1:58 PM 64.0 °F - 46.9 °F 54% 30.09 in 10.0 mi NNW 5.8 mph - N/A   Clear
2:58 PM 65.7 °F - 46.4 °F 50% 30.07 in 10.0 mi Variable 3.5 mph - N/A   Clear
3:58 PM 67.1 °F - 46.4 °F 47% 30.06 in 10.0 mi Variable 3.5 mph - N/A   Clear
4:58 PM 65.8 °F - 44.4 °F 46% 30.04 in 10.0 mi NNE 3.5 mph - N/A   Clear
5:58 PM 61.9 °F - 45.3 °F 55% 30.03 in 10.0 mi Calm Calm - N/A   Clear
6:58 PM 56.8 °F - 45.0 °F 64% 30.02 in 10.0 mi North - - N/A   Clear
7:58 PM 49.6 °F - 45.0 °F 84% 30.03 in 10.0 mi North - - N/A   Clear
8:58 PM 47.5 °F - 45.0 °F 91% 30.02 in 10.0 mi South 1.2 mph - N/A   Clear
9:58 PM 47.7 °F - 45.1 °F 91% 30.01 in 10.0 mi North - - N/A   Clear
10:58 PM 46.6 °F - 45.3 °F 95% 30.00 in 10.0 mi North - - N/A   Clear
11:58 PM 46.0 °F - 45.5 °F 98% 29.99 in 10.0 mi South 1.2 mph - N/A   Clear